Zurück zum Katalog

HULIANWANG DIGUI-105

AktivKommunikationLEO
NORAD 66915·PAYLOAD·🇨🇳 China

Gestartet Dec 6, 2025 von Wenchang Space Launch Site

Loading…

Nächste Überflüge (nächste 24 Stunden)

TLE

AktuellSource: Space-Track

Epoche: Sep 14, 2026, 04:31 UTC

1 66915U 25285A   26257.18871948 -.00000082  00000-0  90028-4 0  9991
2 66915  50.0043 187.0227 0000184 230.4270 129.6586 13.29325639 37896

Verfolge HULIANWANG DIGUI-105 in Echtzeit mit AllMySat

Download on the App Store